Location: Unspecified
(49.2170°N, 0.0000°E)
Time: 16:51:35
(UTC+00:00)

Envisat - Pass Details

Date: 30 November 2020
Orbit: 764 x 766 km, 98.1° (Epoch: 20 January)

Event Time Altitude Azimuth Distance (km) Brightness Sun altitude
Rises 04:15:51 0° 33° (NNE) 3,245 6.7 -31.3°
Reaches altitude 10° 04:20:42 10° 75° (ENE) 2,309 6.3 -30.5°
Maximum altitude 04:21:29 10° 84° (E) 2,285 6.3 -30.4°
Drops below altitude 10° 04:22:17 10° 93° (E) 2,306 6.4 -30.2°
Sets 04:27:05 0° 134° (SE) 3,223 6.9 -29.5°
